Location: Spruce Knob
(38.6995°N, 79.5330°W)
Time: 21:03:48
(UTC-04:00)

Transit 2A - Pass Details

Date: 10 August 2022
Orbit: 601 x 956 km, 66.7° (Epoch: 27 September)

Event Time Altitude Azimuth Distance (km) Brightness Sun altitude
Rises 20:39:10 0° 348° (NNW) 2,854 9.5 -4.5°
Reaches altitude 10° 20:42:21 10° 13° (NNE) 1,958 8.3 -5.1°
Maximum altitude 20:44:49 15° 48° (NE) 1,689 7.6 -5.5°
Drops below altitude 10° 20:47:19 10° 82° (E) 2,002 7.7 -6.0°
Enters shadow 20:48:43 - 95° (E) 2,360 7.9 -6.2°
